Regional Weather Roundup
Issued by NWS

Home | Current Version | Previous Version | Text Only | Print | Product List | Glossary On
Versions: 1 2 3 4 5 6 7 8 9 10 11 12 13 14 15 16 17 18 19 20 21 22 23 24 25 26 27 28 29 30 31 32 33 34 35 36 37 38 39 40 41 42 43 44 45 46 47 48 49 50
000
ASUS43 KTOP 220408
RWRKS

WEATHER ROUNDUP FOR KANSAS
NATIONAL WEATHER SERVICE GOODLAND KS
1000 PM CST SAT JAN 21 2017

NOTE:  "FAIR" INDICATES FEW OR NO CLOUDS BELOW 12,000 FEET WITH NO
SIGNIFICANT WEATHER AND/OR OBSTRUCTIONS TO VISIBILITY.

KSZ001>006-013>018-027>032-041>047-220500-
NORTHWEST KANSAS

CITY           SKY/WX    TMP DP  RH WIND       PRES   REMARKS
GOODLAND       CLOUDY    30  27  88 N7        29.57R
HAYS           CLOUDY    43  37  79 NE12      29.51R
HILL CITY      MOCLDY    38  35  89 N9        29.55R
RUSSELL        CLOUDY    43  37  79 NE7       29.49R
$$

KSZ061>065-074>080-084>089-220500-
SOUTHWEST KANSAS

CITY           SKY/WX    TMP DP  RH WIND       PRES   REMARKS
DODGE CITY     LGT RAIN  41  39  93 N13       29.45R
ELKHART          N/A     38  32  79 N10         N/A  WCI  31
GARDEN CITY    LGT RAIN  41  39  93 NE12      29.48R
GREAT BEND     CLOUDY    43  38  82 NE8       29.48R
LIBERAL        CLOUDY    43  36  75 N18       29.42R
PRATT          CLOUDY    40  38  92 NE8       29.45R
$$

KSZ066>073-081>083-090>101-220500-
SOUTHEAST KANSAS

CITY           SKY/WX    TMP DP  RH WIND       PRES   REMARKS
CHANUTE        CLOUDY    50  43  77 N6        29.46R
COFFEYVILLE    CLOUDY    49  45  86 NE6       29.42F
HUTCHINSON     CLOUDY    46  44  93 NE5       29.46R
MEDICINE LODGE   N/A     46  39  76 NE9       29.39S
NEWTON         CLOUDY    44  43  96 E9        29.47R
PARSONS        CLOUDY    51  45  79 VRB6      29.44S
WICHITA INTL   CLOUDY    48  40  73 NE9       29.44R
WICHITA JABRA  CLOUDY    45  42  89 NE7       29.45R
WICHITA MCCONL CLOUDY    47  40  74 NE13      29.43S
WINFIELD       MOCLDY    48  40  73 NE10      29.41F
$$

KSZ007>012-019>026-033>040-048>060-102>105-220500-
NORTHEAST KANSAS

CITY           SKY/WX    TMP DP  RH WIND       PRES   REMARKS
CONCORDIA      CLOUDY    40  36  86 NE3       29.52R
EMPORIA        CLOUDY    45  44  97 NE8       29.49S
LAWRENCE       CLOUDY    46  44  93 NW6       29.51S
MANHATTAN      CLOUDY    48  42  80 NE5       29.50S
MARYSVILLE     PTCLDY    39  36  87 E5        29.53S
OLATHE IND     CLOUDY    46  44  93 NE7       29.51S
OLATHE EXE     CLOUDY    47  43  86 NE7       29.51S
SALINA         CLOUDY    46  41  82 NE7       29.49R
TOPEKA BILLARD LGT RAIN  46  43  89 SE7       29.52R
TOPEKA FORBES  CLOUDY    47  44  90 NE3       29.51R
$$



USA.gov is the U.S. government's official web portal to all federal, state and local government web resources and services.